Weather History for KPUW - June, 2013

Change the Weather History Date:

Wednesday, June 26, 2013

  Actual Average Record
Temperature  
Mean Temperature 62 °F 61 °F  
Max Temperature 68 °F 75 °F 96 °F (1992)
Min Temperature 55 °F 47 °F 35 °F (1976)
Degree Days  
Heating Degree Days 3 5  
Month to date heating degree days 190 187  
Since 1 June heating degree days 190 187  
Since 1 July heating degree days 6269 6587  
Cooling Degree Days 0 1  
Month to date cooling degree days 9 5  
Year to date cooling degree days 21 10  
Since 1 June cooling degree days 9 5  
Growing Degree Days 10 (Base 50)    
Moisture  
Dew Point 55 °F    
Average Humidity 78    
Maximum Humidity 100    
Minimum Humidity 56    
Precipitation  
Precipitation 0.02 in 0.03 in 0.74 in (2012)
Month to date precipitation 1.79 0.95  
Year to date precipitation 8.29 9.46  
Sea Level Pressure  
Sea Level Pressure 30.04 in    
Wind  
Wind Speed 5 mph (SE)    
Max Wind Speed 17 mph    
Max Gust Speed 23 mph    
Visibility 10 miles    
Events Rain    
T = Trace of Precipitation, MM = Missing Value Source: NWS Daily Summary

Daily Weather History Graph

Daily Weather History Graph

Search for Another Location

Airport or City:

Trip Planner

Search our weather history database for the weather conditions in past years. The results will help you decide how hot, cold, wet, or windy it might be!

Date:

Astronomy

Jun. 26, 2013 Rise Set
Actual Time 4:56 AM PDT 8:46 PM PDT
Civil Twilight 4:16 AM PDT 9:25 PM PDT
Nautical Twilight 3:22 AM PDT 10:19 PM PDT
Astronomical Twilight 2:04 AM PDT 11:37 PM PDT
Moon 10:54 PM PDT (6/26) 9:08 AM PDT (6/26)
Length of Visible Light 17h 09m
Length of Day
15h 50m
Waning Gibbous, 84% of the Moon is Illuminated
Jun 26
Waning Gibbous
Jun 29
Last Quarter
Jul 8
New
Jul 15
First Quarter
Jul 22
Full

Hourly Weather History & Observations

Time (PDT) Temp. Dew Point Humidity Pressure Visibility Wind Dir Wind Speed Gust Speed Precip Events Conditions
12:53 AM 57.0 °F 54.0 °F 89% 29.92 in 10.0 mi East 3.5 mph - 0.00 in   Overcast
1:53 AM 55.0 °F 54.0 °F 96% 29.95 in 10.0 mi Calm Calm - 0.00 in   Overcast
2:53 AM 55.9 °F 54.0 °F 93% 29.96 in 10.0 mi Calm Calm - N/A   Overcast
3:53 AM 55.0 °F 53.1 °F 93% 29.97 in 10.0 mi Calm Calm - N/A   Scattered Clouds
4:53 AM 55.9 °F 54.0 °F 93% 29.99 in 10.0 mi Calm Calm - N/A   Overcast
5:53 AM 55.9 °F 54.0 °F 93% 29.99 in 10.0 mi ENE 3.5 mph - N/A   Partly Cloudy
6:53 AM 55.9 °F 55.0 °F 97% 30.00 in 10.0 mi SE 3.5 mph - N/A   Clear
7:53 AM 57.9 °F 55.0 °F 90% 30.00 in 10.0 mi SE 4.6 mph - N/A   Clear
8:53 AM 60.1 °F 55.0 °F 83% 30.02 in 10.0 mi SE 6.9 mph - N/A   Partly Cloudy
9:53 AM 64.0 °F 55.0 °F 73% 30.01 in 10.0 mi ESE 8.1 mph - N/A   Clear
10:53 AM 64.9 °F 55.0 °F 70% 30.02 in 10.0 mi SSE 5.8 mph - N/A   Clear
11:53 AM 66.9 °F 55.9 °F 68% 30.02 in 10.0 mi SSE 9.2 mph - N/A   Clear
12:53 PM 66.9 °F 55.9 °F 68% 30.03 in 10.0 mi SE 6.9 mph - N/A   Partly Cloudy
1:53 PM 64.9 °F 50.0 °F 58% 30.04 in 10.0 mi SSE 4.6 mph - N/A   Mostly Cloudy
2:53 PM 66.0 °F 50.0 °F 56% 30.04 in 10.0 mi South 4.6 mph - N/A   Mostly Cloudy
3:53 PM 64.9 °F 54.0 °F 68% 30.06 in 10.0 mi SSW 5.8 mph - 0.01 in Rain Light Rain
4:53 PM 64.0 °F 57.0 °F 78% 30.08 in 10.0 mi South 6.9 mph - 0.00 in Rain Light Rain
5:53 PM 64.0 °F 57.9 °F 80% 30.07 in 10.0 mi South 4.6 mph - 0.00 in Rain Light Rain
6:53 PM 63.0 °F 57.9 °F 84% 30.08 in 10.0 mi SSE 9.2 mph - 0.00 in   Overcast
7:53 PM 61.0 °F 57.9 °F 90% 30.10 in 10.0 mi SE 3.5 mph - 0.01 in   Overcast
8:53 PM 60.1 °F 57.9 °F 93% 30.12 in 10.0 mi ESE 3.5 mph - 0.00 in   Overcast
9:53 PM 60.1 °F 57.0 °F 90% 30.13 in 10.0 mi Calm Calm - N/A   Overcast
10:53 PM 57.9 °F 55.9 °F 93% 30.13 in 10.0 mi East 4.6 mph - N/A   Scattered Clouds
11:53 PM 59.0 °F 55.0 °F 87% 30.13 in 10.0 mi East 6.9 mph - N/A   Partly Cloudy